Grand Marais, MN

3:38 PM CST on December 16, 2017 (GMT -0600)
Grand Marais

Weather History for KGNA - December, 2013

Change the Weather History Date:

Sunday, December 8, 2013

  Actual Average (KCKC) Record (KCKC)
Temperature  
Mean Temperature 8 °F -  
Max Temperature 23 °F 25 °F 35 °F (1999)
Min Temperature -8 °F 13 °F -20 °F (2013)
Degree Days  
Heating Degree Days 58    
Moisture  
Dew Point -2 °F    
Average Humidity 69    
Maximum Humidity 85    
Minimum Humidity 47    
Precipitation  
Precipitation 0.10 in - - ()
Sea Level Pressure  
Sea Level Pressure 30.37 in    
Wind  
Wind Speed 6 mph (WNW)    
Max Wind Speed 20 mph    
Max Gust Speed 20 mph    
Averages and records for this station are not official NWS values.
T = Trace of Precipitation, MM = Missing Value Source: NWS Daily Summary

Daily Weather History Graph

Daily Weather History Graph

Search for Another Location

Airport or City:

Trip Planner

Search our weather history database for the weather conditions in past years. The results will help you decide how hot, cold, wet, or windy it might be!

Date:

Astronomy

Dec. 08, 2013 Rise Set
Actual Time 7:37 AM CST 4:09 PM CST
Civil Twilight 7:01 AM CST 4:45 PM CST
Nautical Twilight 6:22 AM CST 5:24 PM CST
Astronomical Twilight 5:44 AM CST 6:01 PM CST
Moon 11:37 AM CST (12/8) 11:21 PM CST (12/8)
Length of Visible Light 9h 43m
Length of Day
8h 31m
Waxing Crescent, 40% of the Moon is Illuminated
Dec 8
Waxing Crescent
Dec 9
First Quarter
Dec 17
Full
Dec 25
Last Quarter
Jan 1
New

Hourly Weather History & Observations

Time (CST) Temp. Windchill Dew Point Humidity Pressure Visibility Wind Dir Wind Speed Gust Speed Precip Events Conditions
12:56 AM -8.0 °F -21.0 °F -16.1 °F 68% 30.57 in - NW 5.8 mph - N/A   Unknown
1:56 AM -6.0 °F -18.6 °F -13.0 °F 72% 30.56 in - Variable 5.8 mph - N/A   Unknown
2:56 AM -2.9 °F -17.7 °F -11.0 °F 68% 30.53 in - West 8.1 mph - N/A   Unknown
3:56 AM -4.0 °F -14.6 °F -14.1 °F 62% 30.53 in - Variable 4.6 mph - N/A   Unknown
4:56 AM -5.1 °F -15.8 °F -15.0 °F 62% 30.54 in - NW 4.6 mph - N/A   Unknown
5:56 AM -4.0 °F -20.2 °F -14.1 °F 62% 30.53 in - WNW 9.2 mph - N/A   Unknown
6:56 AM -7.1 °F -15.9 °F -17.0 °F 62% 30.54 in - NW 3.5 mph - N/A   Unknown
7:56 AM -4.0 °F -17.8 °F -16.1 °F 56% 30.50 in - NW 6.9 mph - N/A   Unknown
8:56 AM -0.9 °F -11.0 °F -13.0 °F 57% 30.49 in - WNW 4.6 mph - N/A   Unknown
9:56 AM 3.0 °F - -13.0 °F 47% 30.49 in - Calm Calm - N/A   Unknown
10:56 AM 5.0 °F -4.1 °F -6.0 °F 61% 30.47 in - Variable 4.6 mph - N/A   Unknown
11:56 AM 8.1 °F -0.5 °F -0.9 °F 67% 30.43 in - West 4.6 mph - N/A   Unknown
12:56 PM 10.0 °F 3.6 °F 1.9 °F 70% 30.40 in - Variable 3.5 mph - N/A   Unknown
1:56 PM 10.9 °F 4.7 °F 1.9 °F 67% 30.35 in - Variable 3.5 mph - N/A   Unknown
2:56 PM 12.0 °F - 1.9 °F 64% 30.32 in - Calm Calm - N/A   Unknown
3:56 PM 12.0 °F 5.9 °F 3.0 °F 67% 30.32 in - NNW 3.5 mph - N/A   Unknown
4:56 PM 10.9 °F - 3.9 °F 73% 30.29 in - Calm Calm - 0.01 in   Unknown
5:56 PM 10.9 °F 4.7 °F 6.1 °F 81% 30.26 in - North 3.5 mph - 0.01 in   Unknown
6:56 PM 14.0 °F 8.2 °F 9.0 °F 80% 30.23 in - NNE 3.5 mph - 0.02 in   Unknown
7:56 PM 17.1 °F 11.7 °F 12.0 °F 81% 30.18 in - Variable 3.5 mph - 0.01 in   Unknown
8:56 PM 21.0 °F 11.4 °F 15.1 °F 78% 30.14 in - SE 8.1 mph 19.6 mph 0.02 in   Unknown
9:56 PM 21.9 °F 7.8 °F 18.0 °F 85% 30.09 in - SSE 17.3 mph - 0.01 in   Unknown
10:56 PM 23.0 °F 8.3 °F 18.0 °F 81% 30.06 in - South 19.6 mph - 0.01 in   Unknown
11:56 PM 23.0 °F 9.2 °F 17.1 °F 78% 30.03 in - SSW 17.3 mph - 0.01 in   Unknown